Home > Weather > Leiden > Past weeks

Flag for Netherlands Past Weather in Leiden, Netherlands — Yesterday and Last 2 Weeks

Now
70 °F

Clear.


Feels Like: 70 °F
Forecast: 57 / 63 °F
Wind: 9 mph from South

Location: Rotterdam Zestienhoven Airport

Current Time: Jun 28, 2016 at 3:14:17 PM

Latest Report: Jun 28, 2016 at 2:25 PM


Visibility: N/A

Pressure: 29.98 "Hg

Humidity: 60%

Dew Point: 55 °F

Location of LeidenLocation

Past Weather in Leiden — Graph

°F

Leiden Temperature Yesterday

Maximum temperature yesterday: 64 °F (at 5:25 PM)
Minimum temperature yesterday: 55 °F (at 11:25 PM)
Average temperature yesterday: 61 °F

High & Low Weather Summary for the Past Weeks

 TemperatureHumidityPressure
High81 °F (Jun 23, 4:25 PM)100% (Jun 13, 7:55 PM)30.27 "Hg (Jun 13, 7:55 PM)
Low50 °F (Jun 16, 5:25 AM)53% (Jun 16, 12:25 PM)29.45 "Hg (Jun 14, 11:55 AM)
Average61 °F84%29.90 "Hg
* Reported Jun 13 1:25 PM — Jun 28 1:55 PM, Leiden, Weather by CustomWeather, © 2016

Note: Actual official high and low records may vary slightly from our data, if they occured in-between our weather recording intervals... More about our weather records

Advertising

Leiden Weather History for the Previous 24 Hours

Scroll right to see more
 ConditionsComfort  
Time TempWeatherWind HumidityBarometerVisibility
1:55 PM
Tue, Jun 28
70 °FScattered clouds.9 mph60%29.98 "HgN/A
1:25 PM70 °FPassing clouds.9 mph64%29.98 "HgN/A
12:55 PM70 °FBroken clouds.9 mph69%30.01 "HgN/A
12:25 PM70 °FPassing clouds.9 mph60%30.01 "HgN/A
11:55 AM68 °FPartly sunny.9 mph69%30.01 "HgN/A
11:25 AM68 °FPartly sunny.10 mph64%30.01 "HgN/A
10:55 AM68 °FBroken clouds.10 mph64%30.04 "HgN/A
10:25 AM63 °FBroken clouds.9 mph77%30.04 "HgN/A
9:55 AM63 °FPassing clouds.8 mph77%30.04 "HgN/A
9:25 AM63 °FMostly cloudy.9 mph77%30.04 "HgN/A
8:55 AM63 °FPassing clouds.7 mph77%30.04 "HgN/A
8:25 AM61 °FOvercast.5 mph77%30.04 "HgN/A
7:55 AM61 °FOvercast.5 mph77%30.04 "HgN/A
7:25 AM59 °FMostly cloudy.3 mph82%30.07 "HgN/A
6:55 AM57 °FPassing clouds.3 mph82%30.07 "HgN/A
6:25 AM55 °FPartly sunny.2 mph88%30.07 "HgN/A
5:55 AM54 °FClear.3 mph94%30.07 "HgN/A
5:25 AM50 °FClear.3 mph100%30.07 "HgN/A
4:55 AM50 °FClear.3 mph100%30.07 "HgN/A
4:25 AM52 °FCool.3 mph94%30.07 "HgN/A
3:55 AM52 °FClear.2 mph100%30.07 "HgN/A
3:25 AM54 °FClear.1 mph94%30.07 "HgN/A
2:55 AM54 °FClear.1 mph94%30.07 "HgN/A
2:25 AM54 °FClear.2 mph94%30.09 "HgN/A
1:55 AM55 °FClear.2 mph88%30.09 "HgN/A
1:25 AM54 °FClear.3 mph94%30.09 "HgN/A
12:55 AM55 °FClear.No wind88%30.09 "HgN/A
12:25 AM55 °FClear.1 mph88%30.09 "HgN/A
11:55 PM
Mon, Jun 27
55 °FClear.1 mph88%30.09 "HgN/A
11:25 PM55 °FClear.No wind88%30.09 "HgN/A
10:55 PM57 °FClear.3 mph77%30.09 "HgN/A
10:25 PM59 °FClear.2 mph72%30.09 "HgN/A
9:55 PM59 °FCool.3 mph77%30.09 "HgN/A
9:25 PM59 °FCool.5 mph77%30.07 "HgN/A
8:55 PM63 °FMild.5 mph68%30.07 "HgN/A
8:25 PM63 °FClear.5 mph64%30.07 "HgN/A
7:55 PM64 °FPassing clouds.6 mph60%30.07 "HgN/A
7:25 PM64 °FClear.7 mph60%30.07 "HgN/A
6:55 PM64 °FPassing clouds.8 mph64%30.07 "HgN/A
6:25 PM64 °FScattered clouds.7 mph64%30.07 "HgN/A
5:55 PM64 °FClear.7 mph68%30.07 "HgN/A
5:25 PM64 °FPassing clouds.8 mph68%30.04 "HgN/A
4:55 PM63 °FClear.8 mph73%30.04 "HgN/A
4:25 PM63 °FPassing clouds.9 mph73%30.04 "HgN/A
3:55 PM63 °FMostly cloudy.10 mph77%30.04 "HgN/A
3:25 PM63 °FCloudy.9 mph77%30.04 "HgN/A
Weather by CustomWeather, © 2016

See weather overviewHow to use our weather pages